Location: Melbourne
(37.8170°S, 144.9670°E)
Time: 08:59:41
(UTC+11:00)

Vanguard 1 Rocket - Visible Passes

Search period start: 24 March 2017 00:00
Search period end: 02 April 2017 23:00
Orbit: 649 x 4228 km, 34.3° (Epoch: 22 March)

Date Brightness Start Highest point End Pass type
(mag) Time Alt. Az. Time Alt. Az. Time Alt. Az.
24 Mar 9.4 04:10:59 16° E 04:10:59 16° E 04:11:48 10° E visible
24 Mar 7.3 06:28:17 17° W 06:31:38 44° NNW 06:35:52 10° ENE visible
25 Mar 7.1 05:21:16 58° N 05:21:16 58° N 05:25:26 10° ENE visible
25 Mar 11.3 23:06:24 10° NNW 23:06:56 11° NNW 23:06:56 11° NNW visible
26 Mar 9.4 04:14:16 16° E 04:14:16 16° E 04:15:09 10° E visible
26 Mar 7.6 06:31:34 17° WNW 06:34:49 35° NNW 06:38:52 10° NE visible
26 Mar 11.1 21:56:12 10° N 22:00:14 13° NNE 22:00:14 13° NNE visible
27 Mar 7.2 05:24:35 52° N 05:24:35 52° N 05:28:41 10° ENE visible
27 Mar 11.1 23:06:43 10° NNW 23:10:53 17° NNW 23:10:53 17° NNW visible
28 Mar 9.4 04:17:37 16° ENE 04:17:37 16° ENE 04:18:29 10° ENE visible
28 Mar 7.9 06:34:56 15° WNW 06:37:57 27° NNW 06:41:41 10° NNE visible
28 Mar 10.8 21:54:50 10° N 22:04:13 20° NNE 22:04:13 20° NNE visible
29 Mar 11.4 00:21:22 10° NW 00:21:34 10° NW 00:21:34 10° NW visible
29 Mar 7.5 05:28:00 43° N 05:28:00 43° N 05:31:50 10° NE visible
29 Mar 10.9 20:45:29 10° N 20:54:54 14° NE 20:57:35 14° NE visible
29 Mar 10.8 23:07:37 10° NNW 23:14:54 23° NNW 23:14:54 23° NNW visible
30 Mar 9.5 04:21:05 15° ENE 04:21:05 15° ENE 04:21:47 10° ENE visible
30 Mar 8.3 06:38:23 14° WNW 06:40:58 20° NNW 06:44:14 10° NNE visible
30 Mar 10.5 21:54:43 10° NNW 22:08:15 28° NNE 22:08:15 28° NNE visible
31 Mar 11.2 00:23:20 10° NW 00:25:36 14° NW 00:25:36 14° NW visible
31 Mar 7.9 05:31:29 34° N 05:31:29 34° N 05:34:51 10° NE visible
31 Mar 10.7 20:43:26 10° N 20:57:57 21° NE 21:01:36 20° NE visible
31 Mar 10.6 23:08:57 10° NW 23:18:56 30° NNW 23:18:56 30° NNW visible
01 Apr 9.6 04:24:38 12° ENE 04:24:38 12° ENE 04:25:00 10° ENE visible
01 Apr 8.7 06:41:57 11° WNW 06:43:54 14° NW 06:46:15 10° N visible
01 Apr 11.0 19:35:52 10° NNE 19:44:26 13° NE 19:51:50 10° ENE visible
01 Apr 10.3 21:55:17 10° NNW 22:12:16 36° NNE 22:12:16 36° NNE visible
02 Apr 11.1 00:25:32 10° WNW 00:29:36 18° WNW 00:29:36 18° WNW visible
02 Apr 8.4 04:35:07 25° N 04:35:07 25° N 04:37:42 10° NNE visible
02 Apr 10.4 19:42:54 10° NNW 20:00:51 28° NE 20:05:34 25° NE visible
02 Apr 10.4 22:10:37 10° NW 22:22:55 37° NNW 22:22:55 37° NNW visible
